TimeCDT,TemperatureF,Dew PointF,Humidity,Sea Level PressureIn,VisibilityMPH,Wind Direction,Wind SpeedMPH,Gust SpeedMPH,PrecipitationIn,Events,Conditions,WindDirDegrees,DateUTC
12:21 AM,59.0,57.2,94,30.19,1.8,Calm,Calm,-,N/A,,Clear,0,2012-10-13 05:21:00
12:38 AM,57.2,57.2,100,30.19,1.2,Calm,Calm,-,N/A,,Partly Cloudy,0,2012-10-13 05:38:00
12:40 AM,59.0,57.2,94,30.19,0.8,Calm,Calm,-,N/A,,Mist,0,2012-10-13 05:40:00
12:53 AM,57.9,57.0,97,30.19,2.5,Calm,Calm,-,N/A,,Partly Cloudy,0,2012-10-13 05:53:00
1:14 AM,57.2,57.2,100,30.19,3.0,Calm,Calm,-,N/A,,Clear,0,2012-10-13 06:14:00
1:18 AM,57.2,57.2,100,30.19,1.5,Calm,Calm,-,N/A,,Clear,0,2012-10-13 06:18:00
1:34 AM,57.2,57.2,100,30.19,2.0,Calm,Calm,-,N/A,,Clear,0,2012-10-13 06:34:00
1:49 AM,57.2,57.2,100,30.19,0.8,Calm,Calm,-,N/A,,Clear,0,2012-10-13 06:49:00
1:53 AM,57.9,57.0,97,30.19,0.5,Calm,Calm,-,N/A,Fog,Fog,0,2012-10-13 06:53:00
2:03 AM,57.2,57.2,100,30.18,2.0,Calm,Calm,-,N/A,,Clear,0,2012-10-13 07:03:00
2:11 AM,57.2,57.2,100,30.18,3.0,Calm,Calm,-,N/A,,Clear,0,2012-10-13 07:11:00
2:21 AM,57.2,57.2,100,30.19,2.5,Calm,Calm,-,N/A,,Clear,0,2012-10-13 07:21:00
2:53 AM,57.9,55.9,93,30.19,2.5,Calm,Calm,-,N/A,,Clear,0,2012-10-13 07:53:00
3:25 AM,57.2,55.4,94,30.19,3.0,Calm,Calm,-,N/A,,Clear,0,2012-10-13 08:25:00
3:42 AM,57.2,57.2,100,30.19,2.0,Calm,Calm,-,N/A,,Clear,0,2012-10-13 08:42:00
3:53 AM,57.9,57.0,97,30.19,3.0,Calm,Calm,-,N/A,,Clear,0,2012-10-13 08:53:00
4:53 AM,57.9,55.9,93,30.19,3.0,Calm,Calm,-,N/A,,Clear,0,2012-10-13 09:53:00
5:36 AM,57.2,55.4,94,30.20,1.8,Calm,Calm,-,N/A,,Clear,0,2012-10-13 10:36:00
5:53 AM,57.9,55.9,93,30.21,1.8,Calm,Calm,-,N/A,,Clear,0,2012-10-13 10:53:00
6:08 AM,57.2,55.4,94,30.20,2.5,Calm,Calm,-,N/A,,Clear,0,2012-10-13 11:08:00
6:15 AM,57.2,55.4,94,30.20,3.0,Calm,Calm,-,N/A,,Clear,0,2012-10-13 11:15:00
6:53 AM,57.0,55.9,96,30.22,1.0,Calm,Calm,-,N/A,,Clear,0,2012-10-13 11:53:00
7:25 AM,57.2,57.2,100,30.22,2.5,Calm,Calm,-,N/A,,Clear,0,2012-10-13 12:25:00
7:37 AM,60.8,59.0,94,30.22,3.0,Calm,Calm,-,N/A,,Clear,0,2012-10-13 12:37:00
7:53 AM,63.0,61.0,93,30.23,5.0,Calm,Calm,-,N/A,,Clear,0,2012-10-13 12:53:00
8:53 AM,70.0,63.0,78,30.24,10.0,Calm,Calm,-,N/A,,Clear,0,2012-10-13 13:53:00
9:53 AM,77.0,64.0,64,30.25,10.0,East,4.6,-,N/A,,Clear,90,2012-10-13 14:53:00
10:53 AM,82.0,66.0,58,30.24,10.0,ESE,5.8,-,N/A,,Clear,110,2012-10-13 15:53:00
11:53 AM,82.0,66.0,58,30.23,10.0,SSE,10.4,-,N/A,,Clear,150,2012-10-13 16:53:00
12:53 PM,82.9,68.0,60,30.21,10.0,SE,13.8,-,N/A,,Partly Cloudy,140,2012-10-13 17:53:00
1:53 PM,81.0,69.1,67,30.18,10.0,ESE,10.4,-,0.00,,Partly Cloudy,120,2012-10-13 18:53:00
2:53 PM,84.0,69.1,61,30.16,10.0,SSE,12.7,18.4,0.00,,Mostly Cloudy,160,2012-10-13 19:53:00
3:16 PM,82.4,69.8,66,30.15,10.0,SSE,10.4,-,N/A,,Mostly Cloudy,160,2012-10-13 20:16:00
3:33 PM,82.4,68.0,62,30.14,10.0,South,9.2,-,N/A,,Scattered Clouds,170,2012-10-13 20:33:00
3:53 PM,82.0,66.9,60,30.15,10.0,SSE,11.5,-,N/A,,Clear,160,2012-10-13 20:53:00
4:53 PM,81.0,66.9,62,30.14,10.0,SE,8.1,-,N/A,,Clear,130,2012-10-13 21:53:00
5:53 PM,77.0,68.0,74,30.14,10.0,SE,5.8,-,N/A,,Clear,130,2012-10-13 22:53:00
7:53 PM,69.1,66.0,90,30.15,10.0,Calm,Calm,-,N/A,,Clear,0,2012-10-14 00:53:00
9:11 PM,66.2,64.4,94,30.16,1.8,Calm,Calm,-,N/A,,Clear,0,2012-10-14 02:11:00
9:32 PM,66.2,64.4,94,30.16,3.0,Calm,Calm,-,N/A,,Clear,0,2012-10-14 02:32:00
9:53 PM,66.0,64.0,93,30.16,0.8,Calm,Calm,-,N/A,,Clear,0,2012-10-14 02:53:00
10:00 PM,66.2,64.4,94,30.15,2.0,Calm,Calm,-,N/A,,Clear,0,2012-10-14 03:00:00
10:07 PM,66.2,64.4,94,30.15,5.0,Calm,Calm,-,N/A,,Clear,0,2012-10-14 03:07:00
10:13 PM,64.4,64.4,100,30.15,1.5,Calm,Calm,-,N/A,,Clear,0,2012-10-14 03:13:00
10:25 PM,64.4,64.4,100,30.15,3.0,Calm,Calm,-,N/A,,Partly Cloudy,0,2012-10-14 03:25:00